FENGYUN 1C DEB, 47029

Orbit data source: Space-Track

FENGYUN 1C DEB, 47029 is space debris in SSO originally from a launch on Mon, 10 May 1999 UTC launched from the Taiyaun Space Center, China (TSC). Fengyun 1C debris stems from the Chinese weather satellite Fengyun-1C, which was intentionally destroyed by a Chinese anti-satellite missile in 2007. This event dramatically increased the amount of space debris, with thousands of trackable fragments posing hazards to satellites and human spaceflight. The Fengyun 1C debris cloud has become a focal point in discussions about space sustainability and the need for international regulations to prevent the creation of new debris.

Loading next visibility...
Identifier
47029, 1999-025FBF
Orbit
SSO
Country
Flag of CNCN / PRC
Related business
Manufacturer
Unknown
Mission
Spacecraft
Bus & Motor
Unknown
Mass
Unknown
Launch date (UTC)
1999-05-10 (27 years ago)
Launch vehicle
Unknown
Launch site
Taiyaun Space Center, China (TSC)
Object type
Payload
Rocket body
Debris
Shape & HBR
Unknown shape, 0.1 m
Radar Cross Section
Small (<0.1 m²)

Expand to show TLE details & history
Last TLE update: 3 days ago

TLE from 3 days ago
0 FENGYUN 1C DEB
1 47029U 99025FBF 26071.49939293  .00036971  00000-0  22109-2 0  9993
2 47029  98.9172  91.8407 0120479  51.7600 309.4393 15.04983922 44238
Epoch: 2026-03-12T11:59Z
TLE epoch observation values (Epoch: 2026-03-12T11:59:07.549Z)
Latitude
0.00004°
Longitude
101.91084°
Altitude
502.137 km
Speed
7.642 km/s
True Right ascension
06h 07m 21s
True Declination
0° 00' 00"
Sunlit
Object was in daylight at epoch
Visualization orbit readout
Latitude
Unknown
Longitude
Unknown
Altitude
Unknown
Speed
Unknown
Apparent Right ascension
Unknown
Apparent Declination
Unknown
Sunlit
N/A
Visualization observer readout
Local Sidereal Time
22:38:02
Azimuth
Unknown
Elevation
Unknown
Doppler factor
Unknown
Orbital elements
Apogee altitude
632.064 km
Perigee altitude
465.158 km
Semi-major axis
6,926.748 km
Eccentricity
0.01205
Inclination
98.9172°
RAAN
91.8407°
Arg. of periapsis
51.76°
True anomaly
308.36284°
Mean anomaly
309.4393°
Eccentric anomaly
308.9021°
Mean motion
3.76486 °/min
Orbital period
95.62 mins
BSTAR
0.0022109
Loading maneuver chart data...
Computing Atmospheric mass density...

Documentation

Showing up to 5 results
|